Showing default

LEMUR-2 CARROLLEMO, 68489

Orbit data source: Space-Track

LEMUR-2 CARROLLEMO, 68489 is a payload satellite owned by Spire (DE) in SSO that was launched on Mon, 30 Mar 2026 UTC via an FALCON 9 launch vehicle from the Air Force Western Test Range (AFWTR). Payload-class satellites include a variety of spacecraft equipped with specific instruments for various scientific and technological missions. These include communications satellites like Starlink; space stations such as the ISS; scientific satellites like the Hubble; Earth observation satellites from companies like Planet Labs, Umbra, and HawkEye 360; GPS; miniature CubeSats for education and research; and military/defense satellites.

Loading next visibility...
Identifier
68489, 2026-067CB
Orbit
SSO
Country
Flag of DEDE / GER
Related business
Manufacturer
Spire/Glasgow
Mission
Operational spacecraft
Bus & Motor
CUBESAT 3U, Unknown motor
Mass
7.6 kg wet, 7.6 kg dry
Launch date (UTC)
2026-03-30 (3 months ago)
Launch vehicle
FALCON 9
Launch site
Air Force Western Test Range (AFWTR)
Object type
Payload
Rocket body
Debris
Shape & HBR
Unknown shape, 0.3 m
Radar Cross Section
Medium (>0.1 m² and <1 m²)

Expand to show TLE details & history
Last TLE update: 12 hours ago

TLE from 12 hours ago
0 LEMUR-2 CARROLLEMO
1 68489U 26067CB  26171.35305110  .00002853  00000-0  28942-3 0  9997
2 68489  97.7535 129.4566 0003845  72.1808 287.9830 14.91654326 12193
Epoch: 2026-06-20T08:28Z
TLE epoch observation values (Epoch: 2026-06-20T08:28:23.615Z)
Latitude
0.00001°
Longitude
93.78931°
Altitude
594.992 km
Speed
7.563 km/s
True Right ascension
08h 37m 49s
True Declination
0° 00' 00"
Sunlit
Object was in daylight at epoch
Visualization orbit readout
Latitude
Unknown
Longitude
Unknown
Altitude
Unknown
Speed
Unknown
Apparent Right ascension
Unknown
Apparent Declination
Unknown
Sunlit
N/A
Visualization observer readout
Local Sidereal Time
07:12:39
Azimuth
Unknown
Elevation
Unknown
Doppler factor
Unknown
Orbital elements
Apogee altitude
592.475 km
Perigee altitude
587.116 km
Semi-major axis
6,967.933 km
Eccentricity
0.00038
Inclination
97.7535°
RAAN
129.4566°
Arg. of periapsis
72.1808°
True anomaly
287.94109°
Mean anomaly
287.983°
Eccentric anomaly
287.96204°
Mean motion
3.73153 °/min
Orbital period
96.48 mins
BSTAR
0.00028942
Loading maneuver chart data...
Computing Atmospheric mass density...
Loading historical data...
Loading historical data...
Loading historical data...
Loading historical data...
Loading historical data...
Loading historical data...
Loading historical data...

Documentation

Showing up to 5 results
|